TimeHAST,TemperatureF,Dew PointF,Humidity,Sea Level PressureIn,VisibilityMPH,Wind Direction,Wind SpeedMPH,Gust SpeedMPH,PrecipitationIn,Events,Conditions,WindDirDegrees,DateUTC
12:16 AM,37.4,30.2,75,30.25,10.0,NNE,11.5,-,N/A,,Overcast,20,2012-11-21 10:16:00
12:36 AM,37.4,30.2,75,30.26,10.0,NNE,9.2,-,N/A,,Overcast,30,2012-11-21 10:36:00
12:56 AM,37.4,28.4,70,30.26,10.0,NNE,10.4,-,N/A,,Overcast,30,2012-11-21 10:56:00
1:16 AM,35.6,30.2,81,30.26,10.0,NNE,8.1,-,N/A,,Overcast,30,2012-11-21 11:16:00
1:36 AM,35.6,30.2,81,30.26,10.0,NE,10.4,-,N/A,,Overcast,40,2012-11-21 11:36:00
1:56 AM,35.6,28.4,75,30.26,10.0,NE,13.8,-,N/A,,Overcast,40,2012-11-21 11:56:00
2:16 AM,35.6,28.4,75,30.26,10.0,NE,10.4,-,N/A,,Overcast,40,2012-11-21 12:16:00
2:36 AM,35.6,28.4,75,30.26,10.0,NNE,10.4,-,N/A,,Overcast,30,2012-11-21 12:36:00
2:56 AM,35.6,28.4,75,30.26,10.0,NE,9.2,-,N/A,,Overcast,40,2012-11-21 12:56:00
3:16 AM,33.8,28.4,81,30.26,10.0,NNE,9.2,-,N/A,,Overcast,20,2012-11-21 13:16:00
3:36 AM,33.8,26.6,75,30.26,10.0,NNE,8.1,-,N/A,,Overcast,20,2012-11-21 13:36:00
3:56 AM,33.8,26.6,75,30.26,10.0,NNE,10.4,-,N/A,,Overcast,20,2012-11-21 13:56:00
4:16 AM,33.8,26.6,75,30.26,10.0,NNE,5.8,-,N/A,,Overcast,30,2012-11-21 14:16:00
4:36 AM,33.8,26.6,75,30.26,10.0,NNE,8.1,-,N/A,,Overcast,30,2012-11-21 14:36:00
4:56 AM,35.6,26.6,70,30.26,10.0,NE,8.1,-,N/A,,Overcast,40,2012-11-21 14:56:00
5:16 AM,33.8,26.6,75,30.26,10.0,North,8.1,-,N/A,,Overcast,10,2012-11-21 15:16:00
5:36 AM,33.8,26.6,75,30.26,10.0,North,8.1,-,N/A,,Overcast,10,2012-11-21 15:36:00
5:56 AM,35.6,26.6,70,30.26,10.0,ESE,15.0,-,N/A,,Overcast,110,2012-11-21 15:56:00
6:16 AM,35.6,26.6,70,30.26,10.0,ESE,8.1,-,N/A,,Overcast,110,2012-11-21 16:16:00
6:36 AM,35.6,24.8,65,30.27,10.0,ESE,8.1,-,N/A,,Overcast,110,2012-11-21 16:36:00
6:56 AM,35.6,24.8,65,30.27,10.0,ESE,5.8,-,N/A,,Overcast,120,2012-11-21 16:56:00
7:16 AM,35.6,26.6,70,30.27,10.0,ESE,10.4,-,N/A,,Overcast,120,2012-11-21 17:16:00
7:36 AM,35.6,26.6,70,30.28,10.0,SE,9.2,-,N/A,,Overcast,130,2012-11-21 17:36:00
7:56 AM,35.6,24.8,65,30.28,10.0,SE,12.7,-,N/A,,Overcast,130,2012-11-21 17:56:00
8:16 AM,35.6,24.8,65,30.28,10.0,ESE,8.1,-,N/A,,Overcast,120,2012-11-21 18:16:00
8:36 AM,35.6,26.6,70,30.28,10.0,ESE,10.4,-,N/A,,Overcast,110,2012-11-21 18:36:00
8:56 AM,35.6,26.6,70,30.29,10.0,East,10.4,-,N/A,,Overcast,90,2012-11-21 18:56:00
9:16 AM,35.6,26.6,70,30.29,10.0,East,9.2,-,N/A,,Overcast,90,2012-11-21 19:16:00
9:36 AM,35.6,26.6,70,30.29,10.0,East,6.9,-,N/A,,Overcast,90,2012-11-21 19:36:00
9:56 AM,35.6,26.6,70,30.29,10.0,ENE,9.2,-,N/A,,Overcast,60,2012-11-21 19:56:00
10:16 AM,33.8,24.8,70,30.29,10.0,NE,8.1,-,N/A,,Overcast,50,2012-11-21 20:16:00
10:36 AM,35.6,26.6,70,30.29,10.0,East,9.2,-,N/A,,Overcast,80,2012-11-21 20:36:00
10:56 AM,35.6,26.6,70,30.29,10.0,East,10.4,-,N/A,,Overcast,90,2012-11-21 20:56:00
11:16 AM,35.6,26.6,70,30.29,10.0,East,11.5,-,N/A,,Overcast,90,2012-11-21 21:16:00
11:36 AM,35.6,26.6,70,30.29,10.0,East,12.7,-,N/A,,Overcast,90,2012-11-21 21:36:00
11:56 AM,35.6,26.6,70,30.29,10.0,East,5.8,-,N/A,,Overcast,90,2012-11-21 21:56:00
12:16 PM,35.6,24.8,65,30.29,10.0,ESE,8.1,-,N/A,,Overcast,110,2012-11-21 22:16:00
12:36 PM,35.6,24.8,65,30.28,10.0,ESE,5.8,-,N/A,,Overcast,120,2012-11-21 22:36:00
12:56 PM,35.6,26.6,70,30.28,10.0,ESE,8.1,-,N/A,,Overcast,120,2012-11-21 22:56:00
1:16 PM,35.6,24.8,65,30.28,10.0,SE,5.8,-,N/A,,Overcast,140,2012-11-21 23:16:00
1:36 PM,35.6,24.8,65,30.27,10.0,East,4.6,-,N/A,,Overcast,100,2012-11-21 23:36:00
1:56 PM,35.6,26.6,70,30.26,10.0,East,4.6,-,N/A,,Overcast,80,2012-11-21 23:56:00
2:16 PM,35.6,26.6,70,30.26,10.0,East,8.1,-,N/A,,Overcast,90,2012-11-22 00:16:00
2:36 PM,35.6,26.6,70,30.26,10.0,ESE,10.4,-,N/A,,Overcast,110,2012-11-22 00:36:00
2:56 PM,35.6,24.8,65,30.25,10.0,ESE,5.8,-,N/A,,Overcast,110,2012-11-22 00:56:00
3:16 PM,35.6,24.8,65,30.26,10.0,SE,8.1,-,N/A,,Overcast,140,2012-11-22 01:16:00
3:36 PM,35.6,24.8,65,30.26,10.0,SE,9.2,-,N/A,,Overcast,130,2012-11-22 01:36:00
3:56 PM,35.6,26.6,70,30.26,10.0,ESE,5.8,-,N/A,,Overcast,120,2012-11-22 01:56:00
4:16 PM,35.6,24.8,65,30.25,10.0,SE,5.8,-,N/A,,Overcast,130,2012-11-22 02:16:00
4:36 PM,35.6,24.8,65,30.25,10.0,ESE,4.6,-,N/A,,Overcast,110,2012-11-22 02:36:00
4:56 PM,35.6,26.6,70,30.25,10.0,SE,8.1,-,N/A,,Overcast,140,2012-11-22 02:56:00
5:16 PM,35.6,24.8,65,30.25,10.0,SSE,5.8,-,N/A,,Overcast,150,2012-11-22 03:16:00
5:36 PM,35.6,24.8,65,30.25,10.0,ESE,10.4,-,N/A,,Mostly Cloudy,120,2012-11-22 03:36:00
5:56 PM,35.6,24.8,65,30.24,10.0,SE,9.2,-,N/A,,Mostly Cloudy,130,2012-11-22 03:56:00
6:16 PM,33.8,24.8,70,30.25,10.0,SE,6.9,-,N/A,,Scattered Clouds,130,2012-11-22 04:16:00
6:36 PM,33.8,24.8,70,30.25,10.0,SSE,5.8,-,N/A,,Mostly Cloudy,160,2012-11-22 04:36:00
6:56 PM,35.6,24.8,65,30.24,10.0,SE,6.9,-,N/A,,Overcast,130,2012-11-22 04:56:00
7:16 PM,35.6,26.6,70,30.24,10.0,ESE,4.6,-,N/A,,Overcast,110,2012-11-22 05:16:00
7:36 PM,35.6,26.6,70,30.25,10.0,ESE,5.8,-,N/A,,Overcast,110,2012-11-22 05:36:00
7:56 PM,35.6,26.6,70,30.25,10.0,SSE,10.4,-,N/A,,Overcast,150,2012-11-22 05:56:00
8:16 PM,35.6,26.6,70,30.25,10.0,SSE,8.1,-,N/A,,Overcast,150,2012-11-22 06:16:00
8:36 PM,35.6,26.6,70,30.25,10.0,SE,9.2,-,N/A,,Overcast,140,2012-11-22 06:36:00
8:56 PM,35.6,26.6,70,30.25,10.0,SSE,8.1,-,N/A,,Overcast,160,2012-11-22 06:56:00
9:16 PM,35.6,26.6,70,30.24,10.0,SE,12.7,16.1,N/A,,Overcast,140,2012-11-22 07:16:00
9:36 PM,35.6,26.6,70,30.24,10.0,SE,8.1,-,N/A,,Overcast,130,2012-11-22 07:36:00
9:56 PM,35.6,26.6,70,30.23,10.0,SSE,9.2,-,N/A,,Overcast,160,2012-11-22 07:56:00
10:16 PM,35.6,26.6,70,30.23,10.0,SE,11.5,-,N/A,,Overcast,140,2012-11-22 08:16:00
10:36 PM,35.6,26.6,70,30.23,10.0,SE,11.5,-,N/A,,Overcast,130,2012-11-22 08:36:00
10:56 PM,35.6,26.6,70,30.23,10.0,SE,6.9,-,N/A,,Overcast,130,2012-11-22 08:56:00
11:16 PM,35.6,26.6,70,30.22,10.0,SE,8.1,-,N/A,,Overcast,130,2012-11-22 09:16:00
11:36 PM,35.6,26.6,70,30.22,10.0,South,5.8,-,N/A,,Overcast,170,2012-11-22 09:36:00
11:56 PM,35.6,26.6,70,30.22,10.0,SE,10.4,-,N/A,,Overcast,140,2012-11-22 09:56:00